User: anonymous   Login
Location: Mentone
(34.5413°N, 85.5351°W)
Time: 20:44:12
(UTC-05:00)
Language:

Transit 2A Rocket - Orbit

View from above orbital plane
View from above orbital plane
View from above satellite
View from above satellite

Ground track
Ground track

The orbit data is extracted from the following two-line orbital elements,

1    47U 60007C   18112.36843819 -.00000037 +00000-0 +16904-4 0  9994
2    47 066.6644 099.3587 0225277 160.9406 200.0304 14.41978503021191
Epoch (UTC): 22 April 2018 08:50:33
Eccentricity: 0.0225277
inclination: 66.6644°
perigee height: 591 km
apogee height: 912 km
right ascension of ascending node: 99.3587°
argument of perigee: 160.9406°
revolutions per day: 14.41978503
mean anomaly at epoch: 200.0304°
orbit number at epoch: 2119

The dashed part of the orbit path shows where the satellite is in the earth's shadow,  

DLR